Weather History for Auburn, AL

Change the Weather History Date:

Monday, March 11, 2013

  Actual Average Record
Temperature  
Mean Temperature 42 °F -  
Max Temperature 48 °F - 89 °F (1974)
Min Temperature 36 °F - 21 °F (1998)
Degree Days  
Heating Degree Days 23    
Month to date heating degree days 23  
Since 1 July heating degree days 1507  
Cooling Degree Days 0    
Month to date cooling degree days  
Year to date cooling degree days  
Growing Degree Days 5 (Base 50)    
Moisture  
Dew Point 49 °F    
Average Humidity 75    
Maximum Humidity 94    
Minimum Humidity 51    
Precipitation  
Precipitation 0.00 in - 2.07 in (2001)
Month to date precipitation 0.00  
Year to date precipitation 13.38  
Sea Level Pressure  
Sea Level Pressure 29.89 in    
Wind  
Wind Speed 9 mph (South)    
Max Wind Speed 16 mph    
Max Gust Speed 20 mph    
Visibility 10 miles    
Events      
T = Trace of Precipitation, MM = Missing Value Source: NWS Daily Summary

Daily Weather History Graph

Daily Weather History Graph

Search for Another Location

Airport:

Trip Planner

Search our weather history database for the weather conditions in past years. The results will help you decide how hot, cold, wet, or windy it might be!

Date:

Astronomy

Mar. 11, 2013 Rise Set
Actual Time 6:56 AM CDT 6:46 PM CDT
Civil Twilight 6:32 AM CDT 7:11 PM CDT
Nautical Twilight 6:03 AM CDT 7:40 PM CDT
Astronomical Twilight 5:35 AM CDT 8:08 PM CDT
Moon 6:31 AM CDT (3/11) 6:55 PM CDT (3/11)
Length of Visible Light 12h 39m
Length of Day
11h 50m
Waning Crescent, 0% of the Moon is Illuminated
Mar 11
Waning Crescent
Mar 11
New
Mar 19
First Quarter
Mar 27
Full
Apr 2
Last Quarter

Hourly Weather History & Observations

Time (CDT) Temp. Windchill Dew Point Humidity Pressure Visibility Wind Dir Wind Speed Gust Speed Precip Events Conditions
12:15 AM 59.0 °F - 41.0 °F 51% 30.01 in 10.0 mi SSE 9.2 mph - N/A   Clear
12:35 AM 59.0 °F - 41.0 °F 51% 30.01 in 10.0 mi SSE 10.4 mph - N/A   Clear
1:16 AM 57.2 °F - 41.0 °F 55% 30.00 in 10.0 mi SE 8.1 mph - N/A   Clear
1:35 AM 57.2 °F - 42.8 °F 59% 30.00 in 10.0 mi ESE 8.1 mph - N/A   Mostly Cloudy
1:55 AM 55.4 °F - 42.8 °F 63% 29.99 in 10.0 mi SE 9.2 mph - N/A   Overcast
2:15 AM 55.4 °F - 42.8 °F 63% 29.98 in 10.0 mi ESE 8.1 mph - N/A   Mostly Cloudy
2:35 AM 55.4 °F - 42.8 °F 63% 29.97 in 10.0 mi SE 11.5 mph - N/A   Partly Cloudy
2:55 AM 55.4 °F - 42.8 °F 63% 29.97 in 10.0 mi SE 8.1 mph - N/A   Partly Cloudy
3:15 AM 57.2 °F - 44.6 °F 63% 29.95 in 10.0 mi SE 11.5 mph 17.3 mph N/A   Partly Cloudy
3:35 AM 57.2 °F - 44.6 °F 63% 29.97 in 10.0 mi SSE 10.4 mph - N/A   Scattered Clouds
3:55 AM 57.2 °F - 44.6 °F 63% 29.96 in 10.0 mi SE 12.7 mph 17.3 mph N/A   Overcast
4:15 AM 57.2 °F - 44.6 °F 63% 29.96 in 10.0 mi SE 8.1 mph 18.4 mph N/A   Overcast
4:35 AM 55.4 °F - 46.4 °F 72% 29.97 in 10.0 mi SSE 6.9 mph - N/A   Overcast
4:55 AM 55.4 °F - 46.4 °F 72% 29.97 in 10.0 mi SE 8.1 mph - N/A   Overcast
5:15 AM 55.4 °F - 46.4 °F 72% 29.96 in 10.0 mi ESE 10.4 mph - N/A   Mostly Cloudy
5:35 AM 55.4 °F - 46.4 °F 72% 29.96 in 10.0 mi SE 9.2 mph - N/A   Overcast
5:55 AM 55.4 °F - 46.4 °F 72% 29.96 in 10.0 mi SE 10.4 mph - N/A   Overcast
6:15 AM 55.4 °F - 48.2 °F 77% 29.96 in 10.0 mi SE 9.2 mph - N/A   Mostly Cloudy
6:35 AM 55.4 °F - 48.2 °F 77% 29.95 in 10.0 mi SE 9.2 mph - N/A   Clear
6:55 AM 55.4 °F - 48.2 °F 77% 29.95 in 10.0 mi SE 10.4 mph 17.3 mph N/A   Clear
7:15 AM 55.4 °F - 48.2 °F 77% 29.95 in 10.0 mi SE 12.7 mph 17.3 mph N/A   Clear
7:35 AM 55.4 °F - 48.2 °F 77% 29.94 in 10.0 mi SSE 15.0 mph 19.6 mph N/A   Clear
7:55 AM 55.4 °F - 48.2 °F 77% 29.94 in 10.0 mi SSE 12.7 mph 19.6 mph N/A   Clear
8:15 AM 55.4 °F - 48.2 °F 77% 29.94 in 10.0 mi SSE 13.8 mph - N/A   Clear
8:35 AM 57.2 °F - 48.2 °F 72% 29.94 in 10.0 mi SE 13.8 mph 18.4 mph N/A   Clear
8:55 AM 59.0 °F - 48.2 °F 67% 29.94 in 10.0 mi SSE 16.1 mph 21.9 mph N/A   Clear
9:15 AM 60.8 °F - 48.2 °F 63% 29.94 in 10.0 mi SSE 16.1 mph 25.3 mph N/A   Partly Cloudy
9:35 AM 60.8 °F - 48.2 °F 63% 29.92 in 10.0 mi SSE 13.8 mph 23.0 mph N/A   Clear
9:55 AM 62.6 °F - 50.0 °F 63% 29.91 in 10.0 mi SSE 19.6 mph 25.3 mph N/A   Partly Cloudy
10:15 AM 62.6 °F - 50.0 °F 63% 29.91 in 10.0 mi South 16.1 mph 28.8 mph N/A   Mostly Cloudy
10:35 AM 62.6 °F - 51.8 °F 68% 29.91 in 10.0 mi SSE 16.1 mph 24.2 mph N/A   Mostly Cloudy
10:55 AM 62.6 °F - 51.8 °F 68% 29.90 in 10.0 mi SSE 16.1 mph 28.8 mph N/A   Overcast
11:15 AM 62.6 °F - 51.8 °F 68% 29.88 in 10.0 mi SSE 19.6 mph 28.8 mph N/A   Mostly Cloudy
11:35 AM 64.4 °F - 51.8 °F 64% 29.87 in 10.0 mi SSE 21.9 mph 31.1 mph N/A   Mostly Cloudy
11:55 AM 64.4 °F - 51.8 °F 64% 29.86 in 10.0 mi SSE 17.3 mph 29.9 mph N/A   Mostly Cloudy
12:15 PM 64.4 °F - 51.8 °F 64% 29.86 in 10.0 mi SSE 19.6 mph 25.3 mph N/A   Overcast
12:35 PM 64.4 °F - 51.8 °F 64% 29.84 in 10.0 mi SSE 17.3 mph 25.3 mph N/A   Overcast
12:55 PM 64.4 °F - 51.8 °F 64% 29.82 in 10.0 mi SSE 19.6 mph 29.9 mph N/A   Overcast
1:15 PM 64.4 °F - 51.8 °F 64% 29.81 in 10.0 mi SSE 17.3 mph 25.3 mph N/A   Overcast
1:35 PM 64.4 °F - 53.6 °F 68% 29.82 in 9.0 mi SSE 17.3 mph 24.2 mph N/A   Overcast
1:55 PM 62.6 °F - 53.6 °F 72% 29.81 in 9.0 mi SSE 11.5 mph 24.2 mph 0.05 in   Overcast
2:15 PM 60.8 °F - 55.4 °F 82% 29.82 in 3.0 mi Calm Calm - 0.23 in   Overcast
2:36 PM 60.8 °F - 55.4 °F 82% 29.81 in 10.0 mi NW 4.6 mph - 0.28 in   Overcast
2:55 PM 60.8 °F - 55.4 °F 82% 29.80 in 7.0 mi NW 3.5 mph - 0.40 in   Overcast
3:15 PM 60.8 °F - 55.4 °F 82% 29.81 in 8.0 mi WSW 4.6 mph - 0.08 in   Overcast
3:35 PM 60.8 °F - 55.4 °F 82% 29.82 in 10.0 mi West 3.5 mph - 0.14 in   Mostly Cloudy
3:55 PM 59.0 °F - 55.4 °F 88% 29.82 in 7.0 mi West 3.5 mph - 0.25 in   Overcast
4:15 PM 59.0 °F - 55.4 °F 88% 29.81 in 10.0 mi West 5.8 mph - 0.07 in   Overcast
4:35 PM 57.2 °F - 53.6 °F 88% 29.82 in 10.0 mi West 3.5 mph - 0.13 in   Overcast
4:55 PM 57.2 °F - 55.4 °F 94% 29.80 in 9.0 mi Calm Calm - 0.28 in   Overcast
5:15 PM 57.2 °F - 55.4 °F 94% 29.79 in 9.0 mi Calm Calm - 0.08 in   Overcast
5:35 PM 57.2 °F - 55.4 °F 94% 29.80 in 8.0 mi West 4.6 mph - 0.17 in   Overcast
5:55 PM 57.2 °F - 53.6 °F 88% 29.81 in 5.0 mi West 10.4 mph - 0.23 in   Overcast
6:15 PM 55.4 °F - 51.8 °F 88% 29.81 in 8.0 mi WNW 9.2 mph - 0.08 in   Overcast
6:35 PM 55.4 °F - 51.8 °F 88% 29.81 in 8.0 mi WNW 6.9 mph - 0.08 in   Overcast
6:55 PM 55.4 °F - 51.8 °F 88% 29.82 in 10.0 mi West 9.2 mph - 0.08 in   Overcast
7:15 PM 55.4 °F - 51.8 °F 88% 29.82 in 7.0 mi WNW 8.1 mph - N/A   Overcast
7:35 PM 53.6 °F - 50.0 °F 88% 29.82 in 10.0 mi WNW 8.1 mph - N/A   Overcast
7:55 PM 53.6 °F - 50.0 °F 88% 29.82 in 10.0 mi WNW 8.1 mph - N/A   Overcast
8:15 PM 53.6 °F - 48.2 °F 82% 29.83 in 10.0 mi WNW 9.2 mph - N/A   Overcast
8:35 PM 51.8 °F - 48.2 °F 88% 29.84 in 8.0 mi WNW 11.5 mph 17.3 mph N/A   Overcast
9:35 PM 48.2 °F - 44.6 °F 87% 29.86 in 10.0 mi NW 11.5 mph - N/A   Overcast
9:55 PM 48.2 °F - 44.6 °F 87% 29.86 in 10.0 mi WNW 13.8 mph 18.4 mph N/A   Overcast
10:15 PM 48.2 °F - 44.6 °F 87% 29.86 in 8.0 mi NNW 11.5 mph 18.4 mph N/A   Overcast
10:35 PM 48.2 °F - 44.6 °F 87% 29.87 in 10.0 mi NW 13.8 mph - N/A   Overcast
10:55 PM 48.2 °F - 44.6 °F 87% 29.87 in 10.0 mi WNW 10.4 mph - N/A   Overcast
11:35 PM 46.4 °F 41.1 °F 42.8 °F 87% 29.88 in 10.0 mi NW 11.5 mph - N/A   Overcast
11:55 PM 44.6 °F 37.8 °F 39.2 °F 81% 29.88 in 10.0 mi NW 15.0 mph 18.4 mph N/A   Overcast